Tracking 30417 objects as of 16-May-2025
HD Live streaming from Space Station
objects crossing your sky now

THORAD AGENA D DEB

Track THORAD AGENA D DEB now!
10-day predictions


NORAD ID: 4651
Int'l Code: 1970-025AK
Perigee: 862.9 km
Apogee: 926.8 km
Inclination: 100.1 °
Period: 102.7 minutes
Semi major axis: 7265 km
RCS: 0.047 m2 (small)
Launch date: April 8, 1970
Source: United States (US)
Launch site: AIR FORCE WESTERN TEST RANGE (AFWTR)

Note: This is SATELLITE DEBRIS
Your satellite tracking list
Your tracking list is empty




NASA's NSSDC Master Catalog

Two Line Element Set (TLE):
1 04651U 70025AK  25135.51971011  .00001238  00000-0  84281-3 0  9991
2 04651 100.1353  39.9397 0043964  67.2258 293.3540 14.01767907779985
Source of the keplerian elements: AFSPC